FENGYUN 2H DEB, 43645

Orbit data source: Space-Track

FENGYUN 2H DEB, 43645 is space debris in GEO originally from a launch on Tue, 05 Jun 2018 UTC launched from the Xichang Space Center, China (XSC). Debris objects in space refer to the collection of defunct objects orbiting the Earth. Examples of debris include non-operational satellites, rocket bodies, and fragments generated from explosions, collisions, or faulty payload assembly.

Not visible in the next 10 days
Identifier
43645, 2018-050D
Orbit
GEO
Country
Flag of CNCN / PRC
Related business
Manufacturer
SISE
Mission
Spacecraft
Bus & Motor
Unknown
Mass
Unknown
Launch date (UTC)
2018-06-05 (7 years ago)
Launch vehicle
Unknown
Launch site
Xichang Space Center, China (XSC)
Object type
Payload
Rocket body
Debris
Shape & HBR
Cyl, 0.3 m
Radar Cross Section
0.137 m²

Expand to show TLE details & history
Last TLE update: 2 days ago

TLE from 2 days ago
0 FENGYUN 2H DEB
1 43645U 18050D   25258.06372939  .00000022  00000-0  00000-0 0  9991
2 43645   4.1895  79.7505 0038993 251.3043 108.5376  1.00228402 26168
Epoch: 2025-09-15T01:31Z
TLE epoch observation values (Epoch: 2025-09-15T01:31:46.219Z)
Latitude
Longitude
62.79151°
Altitude
35,850.872 km
Speed
3.07 km/s
True Right ascension
05h 20m 01s
True Declination
0° 00' 00"
Sunlit
Object was in daylight at epoch
Visualization orbit readout
Latitude
Unknown
Longitude
Unknown
Altitude
Unknown
Speed
Unknown
Apparent Right ascension
Unknown
Apparent Declination
Unknown
Sunlit
N/A
Visualization observer readout
Local Sidereal Time
22:25:09
Azimuth
Unknown
Elevation
Unknown
Doppler factor
Unknown
Orbital elements
Apogee altitude
35,964.287 km
Perigee altitude
35,635.358 km
Semi-major axis
42,177.96 km
Eccentricity
0.0039
Inclination
4.1895°
RAAN
79.7505°
Arg. of periapsis
251.3043°
True anomaly
108.96058°
Mean anomaly
108.5376°
Eccentric anomaly
108.74916°
Mean motion
0.25056 °/min
Orbital period
1,436.77 mins
BSTAR
0
Loading maneuver chart data...
Computing Atmospheric mass density...
Loading historical data...
Loading historical data...
Loading historical data...
Loading historical data...
Loading historical data...
Loading historical data...
Loading historical data...
Other satellites on launch #50 in the year 2018 (2018-06-05 UTC)

Documentation

Showing up to 5 results
|